EDW231 GCLA-LSZH

Flight info

Callsign EDW231
Flight time N/A
Altitude 34000
Route SAMAR DCT DIMSA UN858 SUNID/N0440F360 UN858 AKUDA/N0376F240 UN858 PESAS/N0439F360 N858 OSLEP N747 YES M985 BCN DCT KANIG DCT RISOR T45 SOSAL N871 BERSU
Aircraft A320/M-SDE3FGHIRWY/LB1

Departure

Time 2026-05-06 15:34
Airport La Palma Airport (GCLA)

Arrival

Time N/A
Airport Zürich Airport (LSZH)
Time Latitude Longitude Altitude Speed Heading
2026-05-06 15:17 28.62200 -17.75359 114 ft 0 kts 89°
2026-05-06 15:27 28.62200 -17.75384 114 ft 4 kts 94°
2026-05-06 15:27 28.62204 -17.75414 114 ft 4 kts 108°
2026-05-06 15:28 28.62216 -17.75438 113 ft 4 kts 152°
2026-05-06 15:28 28.62225 -17.75442 113 ft 0 kts 179°
2026-05-06 15:30 28.62208 -17.75442 114 ft 6 kts 179°
2026-05-06 15:30 28.62176 -17.75441 114 ft 3 kts 179°
2026-05-06 15:31 28.62144 -17.75441 114 ft 8 kts 179°
2026-05-06 15:31 28.62098 -17.75457 114 ft 6 kts 219°
2026-05-06 15:31 28.62081 -17.75498 116 ft 5 kts 259°
2026-05-06 15:32 28.61963 -17.75548 115 ft 13 kts 179°
2026-05-06 15:32 28.61880 -17.75545 116 ft 13 kts 178°
2026-05-06 15:32 28.61782 -17.75543 114 ft 13 kts 178°
2026-05-06 15:32 28.61703 -17.75559 112 ft 10 kts 203°
2026-05-06 15:33 28.61647 -17.75566 111 ft 7 kts 155°
2026-05-06 15:33 28.61653 -17.75539 111 ft 2 kts 13°
2026-05-06 15:33 28.61655 -17.75539 111 ft 0 kts 360°
2026-05-06 15:33 28.61662 -17.75540 111 ft 13 kts 359°
2026-05-06 15:34 28.62006 -17.75547 116 ft 82 kts 359°
2026-05-06 15:34 28.62774 -17.75563 103 ft 137 kts 359°
2026-05-06 15:34 28.63828 -17.75602 432 ft 151 kts 358°
2026-05-06 15:34 28.64858 -17.75494 1064 ft 152 kts 22°
2026-05-06 15:35 28.65711 -17.74788 1553 ft 159 kts 48°
2026-05-06 15:35 28.66211 -17.73578 1776 ft 180 kts 80°
2026-05-06 15:35 28.66261 -17.72066 1979 ft 204 kts 88°
2026-05-06 15:35 28.66273 -17.70385 2401 ft 218 kts 88°
2026-05-06 15:36 28.66292 -17.68638 2978 ft 228 kts 87°
2026-05-06 15:36 28.66635 -17.66834 3406 ft 240 kts 60°
2026-05-06 15:36 28.67637 -17.65299 3992 ft 249 kts 49°
2026-05-06 15:36 28.68771 -17.63767 4487 ft 262 kts 48°
2026-05-06 15:37 28.69961 -17.62165 5172 ft 268 kts 48°
2026-05-06 15:37 28.71169 -17.60537 5907 ft 271 kts 48°
2026-05-06 15:37 28.72386 -17.58876 6633 ft 275 kts 50°
2026-05-06 15:37 28.73614 -17.57182 7332 ft 279 kts 49°
2026-05-06 15:38 28.74858 -17.55459 8036 ft 283 kts 49°
2026-05-06 15:38 28.76115 -17.53714 8746 ft 287 kts 49°
2026-05-06 15:38 28.77387 -17.51946 9450 ft 290 kts 49°
2026-05-06 15:38 28.78677 -17.50156 10139 ft 294 kts 48°
2026-05-06 15:39 28.80020 -17.48299 10405 ft 315 kts 48°
2026-05-06 15:39 28.81467 -17.46303 10576 ft 338 kts 48°
2026-05-06 15:39 28.83004 -17.44181 10883 ft 354 kts 49°
2026-05-06 15:39 28.84580 -17.41994 11447 ft 359 kts 49°
2026-05-06 15:40 28.86172 -17.39779 12067 ft 363 kts 49°
2026-05-06 15:40 28.87785 -17.37533 12649 ft 368 kts 48°
2026-05-06 15:40 28.89411 -17.35268 13244 ft 371 kts 48°
2026-05-06 15:40 28.91059 -17.32973 13821 ft 375 kts 48°
2026-05-06 15:41 28.92723 -17.30659 14335 ft 379 kts 48°
2026-05-06 15:41 28.94403 -17.28324 14860 ft 382 kts 48°
2026-05-06 15:41 28.96097 -17.25970 15383 ft 385 kts 48°
2026-05-06 15:41 28.97805 -17.23594 15905 ft 388 kts 48°
2026-05-06 15:42 28.99524 -17.21200 16497 ft 391 kts 48°
2026-05-06 15:42 29.01255 -17.18789 17077 ft 394 kts 48°
2026-05-06 15:42 29.02999 -17.16360 17653 ft 397 kts 48°
2026-05-06 15:42 29.04756 -17.13911 18191 ft 400 kts 48°
2026-05-06 15:43 29.06523 -17.11443 18655 ft 402 kts 48°
2026-05-06 15:43 29.08296 -17.08960 19127 ft 404 kts 48°
2026-05-06 15:43 29.10079 -17.06462 19616 ft 406 kts 48°
2026-05-06 15:43 29.11870 -17.03953 20104 ft 408 kts 48°
2026-05-06 15:44 29.13669 -17.01438 20554 ft 410 kts 48°
2026-05-06 15:44 29.15481 -16.98905 21025 ft 412 kts 48°
2026-05-06 15:44 29.17274 -16.96398 21483 ft 413 kts 47°
2026-05-06 15:44 29.19095 -16.93852 21935 ft 415 kts 47°
2026-05-06 15:45 29.20923 -16.91289 22374 ft 416 kts 47°
2026-05-06 15:45 29.22756 -16.88716 22808 ft 418 kts 47°
2026-05-06 15:45 29.24590 -16.86136 23227 ft 419 kts 47°
2026-05-06 15:45 29.26435 -16.83541 23630 ft 421 kts 47°
2026-05-06 15:46 29.28283 -16.80941 23959 ft 422 kts 47°
2026-05-06 15:46 29.30140 -16.78328 24281 ft 423 kts 47°
2026-05-06 15:46 29.32002 -16.75704 24599 ft 425 kts 47°
2026-05-06 15:46 29.33869 -16.73070 24932 ft 427 kts 47°
2026-05-06 15:47 29.35745 -16.70417 25243 ft 429 kts 47°
2026-05-06 15:47 29.37633 -16.67750 25554 ft 432 kts 47°
2026-05-06 15:47 29.39532 -16.65069 25863 ft 434 kts 47°
2026-05-06 15:47 29.41436 -16.62380 26165 ft 435 kts 47°
2026-05-06 15:48 29.43345 -16.59682 26459 ft 436 kts 47°
2026-05-06 15:48 29.45259 -16.56973 26745 ft 438 kts 47°
2026-05-06 15:48 29.47177 -16.54256 27024 ft 439 kts 47°
2026-05-06 15:48 29.49102 -16.51529 27295 ft 440 kts 47°
2026-05-06 15:49 29.51035 -16.48794 27561 ft 442 kts 47°
2026-05-06 15:49 29.52972 -16.46053 27820 ft 443 kts 47°
2026-05-06 15:49 29.54914 -16.43298 28081 ft 444 kts 47°
2026-05-06 15:49 29.56859 -16.40532 28329 ft 445 kts 47°
2026-05-06 15:50 29.58804 -16.37757 28561 ft 447 kts 47°
2026-05-06 15:50 29.60736 -16.34958 28790 ft 448 kts 48°
2026-05-06 15:50 29.62615 -16.32141 28984 ft 452 kts 49°
2026-05-06 15:50 29.64504 -16.29247 29177 ft 454 kts 49°
2026-05-06 15:51 29.66389 -16.26328 29385 ft 455 kts 50°
2026-05-06 15:51 29.68278 -16.23404 29593 ft 456 kts 49°
2026-05-06 15:51 29.70172 -16.20483 29858 ft 455 kts 49°
2026-05-06 15:51 29.72071 -16.17570 30143 ft 454 kts 49°
2026-05-06 15:52 29.73969 -16.14673 30392 ft 453 kts 49°
2026-05-06 15:52 29.75866 -16.11782 30629 ft 452 kts 49°
2026-05-06 15:52 29.77758 -16.08899 30860 ft 451 kts 49°
2026-05-06 15:52 29.79649 -16.06018 31087 ft 450 kts 49°
2026-05-06 15:53 29.81534 -16.03145 31334 ft 449 kts 49°
2026-05-06 15:53 29.83413 -16.00272 31566 ft 448 kts 49°
2026-05-06 15:53 29.85287 -15.97402 31763 ft 450 kts 49°
2026-05-06 15:53 29.87174 -15.94514 31902 ft 452 kts 49°
2026-05-06 15:54 29.88427 -15.92595 32021 ft 452 kts 49°
2026-05-06 15:54 29.90315 -15.89699 32233 ft 452 kts 49°
2026-05-06 15:54 29.92198 -15.86808 32481 ft 451 kts 49°
2026-05-06 15:54 29.94079 -15.83917 32714 ft 450 kts 49°
2026-05-06 15:55 29.95955 -15.81032 32943 ft 449 kts 49°
2026-05-06 15:55 29.97824 -15.78155 33166 ft 448 kts 49°
2026-05-06 15:55 29.99693 -15.75288 33406 ft 447 kts 49°
2026-05-06 15:55 30.01593 -15.72465 33661 ft 444 kts 47°
2026-05-06 15:56 30.03514 -15.69679 33901 ft 443 kts 47°
2026-05-06 15:56 30.05441 -15.66911 34111 ft 442 kts 47°
2026-05-06 15:56 30.07366 -15.64144 34295 ft 442 kts 47°
2026-05-06 15:56 30.09285 -15.61370 34424 ft 443 kts 48°
2026-05-06 15:57 30.11203 -15.58577 34542 ft 444 kts 48°
2026-05-06 15:57 30.13119 -15.55773 34664 ft 445 kts 48°
2026-05-06 15:57 30.15036 -15.52958 34807 ft 446 kts 48°
2026-05-06 15:57 30.16952 -15.50140 34975 ft 445 kts 48°
2026-05-06 15:58 30.20788 -15.44507 35054 ft 445 kts 48°
2026-05-06 15:58 30.24619 -15.38887 35053 ft 445 kts 48°
2026-05-06 15:59 30.28442 -15.33251 35053 ft 445 kts 48°
2026-05-06 15:59 30.32266 -15.27610 35053 ft 445 kts 48°
2026-05-06 16:00 30.36088 -15.21976 35065 ft 445 kts 48°
2026-05-06 16:00 30.39909 -15.16331 35058 ft 445 kts 48°
2026-05-06 16:01 30.43707 -15.10714 35052 ft 446 kts 48°
2026-05-06 16:01 30.47523 -15.05057 35047 ft 446 kts 48°
2026-05-06 16:02 30.51342 -14.99390 35048 ft 446 kts 48°
2026-05-06 16:02 30.55155 -14.93724 35060 ft 446 kts 48°
2026-05-06 16:03 30.58976 -14.88039 35048 ft 447 kts 49°
2026-05-06 16:03 30.62801 -14.82337 35044 ft 448 kts 49°
2026-05-06 16:04 30.66627 -14.76612 35041 ft 449 kts 49°
2026-05-06 16:04 30.70463 -14.70881 35052 ft 449 kts 48°
2026-05-06 16:05 30.74299 -14.65148 35048 ft 450 kts 49°
2026-05-06 16:05 30.78134 -14.59402 35047 ft 450 kts 49°
2026-05-06 16:06 30.81973 -14.53643 35041 ft 451 kts 49°
2026-05-06 16:06 30.85820 -14.47863 35028 ft 453 kts 49°
2026-05-06 16:07 30.89660 -14.42044 35031 ft 454 kts 51°
2026-05-06 16:07 30.93099 -14.35836 35033 ft 457 kts 54°
2026-05-06 16:08 30.96510 -14.29585 35041 ft 457 kts 54°
2026-05-06 16:08 30.99919 -14.23319 35045 ft 458 kts 54°
2026-05-06 16:09 31.03335 -14.17045 35050 ft 460 kts 55°
2026-05-06 16:09 31.06755 -14.10731 35039 ft 461 kts 55°
2026-05-06 16:10 31.10172 -14.04392 35042 ft 462 kts 55°
2026-05-06 16:10 31.13602 -13.98039 35038 ft 463 kts 55°
2026-05-06 16:11 31.17014 -13.91712 35050 ft 464 kts 55°
2026-05-06 16:11 31.20465 -13.85290 35049 ft 464 kts 55°
2026-05-06 16:12 31.23904 -13.78900 35047 ft 465 kts 55°
2026-05-06 16:12 31.27327 -13.72532 35033 ft 466 kts 55°
2026-05-06 16:13 31.30772 -13.66100 35038 ft 467 kts 56°
2026-05-06 16:13 31.34224 -13.59649 35032 ft 468 kts 56°
2026-05-06 16:14 31.37675 -13.53197 35055 ft 468 kts 55°
2026-05-06 16:14 31.41121 -13.46725 35034 ft 469 kts 56°
2026-05-06 16:15 31.44567 -13.40230 35019 ft 471 kts 56°
2026-05-06 16:15 31.48026 -13.33706 35019 ft 472 kts 56°
2026-05-06 16:16 31.51496 -13.27170 35022 ft 473 kts 56°
2026-05-06 16:16 31.54967 -13.20616 35023 ft 473 kts 56°
2026-05-06 16:17 31.58433 -13.14052 35026 ft 474 kts 56°
2026-05-06 16:17 31.61910 -13.07477 35014 ft 475 kts 56°
2026-05-06 16:18 31.65395 -13.00869 35006 ft 477 kts 57°
2026-05-06 16:18 31.68875 -12.94221 35031 ft 478 kts 56°
2026-05-06 16:19 31.72315 -12.87664 35035 ft 478 kts 56°
2026-05-06 16:19 31.75808 -12.81019 35038 ft 478 kts 56°
2026-05-06 16:20 31.79291 -12.74355 35030 ft 479 kts 57°
2026-05-06 16:20 31.82774 -12.67668 35009 ft 480 kts 57°
2026-05-06 16:21 31.86261 -12.60960 35009 ft 481 kts 57°
2026-05-06 16:21 31.89761 -12.54246 35005 ft 482 kts 57°
2026-05-06 16:22 31.93260 -12.47513 35004 ft 482 kts 57°
2026-05-06 16:22 31.97012 -12.41064 35005 ft 479 kts 45°
2026-05-06 16:23 32.02025 -12.35991 35020 ft 475 kts 31°
2026-05-06 16:23 32.07468 -12.31543 35001 ft 477 kts 31°
2026-05-06 16:24 32.12927 -12.27096 35003 ft 478 kts 31°
2026-05-06 16:24 32.18396 -12.22630 35005 ft 478 kts 31°
2026-05-06 16:25 32.23873 -12.18153 35003 ft 479 kts 31°
2026-05-06 16:25 32.29357 -12.13673 35014 ft 480 kts 31°
2026-05-06 16:26 32.34838 -12.09180 35046 ft 479 kts 31°
2026-05-06 16:26 32.40318 -12.04689 35044 ft 479 kts 31°
2026-05-06 16:27 32.45788 -12.00183 35013 ft 480 kts 32°
2026-05-06 16:27 32.51267 -11.95656 35008 ft 481 kts 32°
2026-05-06 16:28 32.56764 -11.91120 35008 ft 482 kts 31°
2026-05-06 16:28 32.62228 -11.86612 35043 ft 482 kts 31°
2026-05-06 16:29 32.67726 -11.82066 35039 ft 482 kts 31°
2026-05-06 16:29 32.73221 -11.77507 35039 ft 482 kts 31°
2026-05-06 16:30 32.77821 -11.73684 35032 ft 482 kts 31°
2026-05-06 16:30 32.84201 -11.68380 35030 ft 481 kts 32°
2026-05-06 16:31 32.89685 -11.63809 35029 ft 481 kts 32°
2026-05-06 16:31 32.95169 -11.59239 35022 ft 481 kts 31°
2026-05-06 16:32 33.00652 -11.54669 35021 ft 481 kts 32°
2026-05-06 16:32 33.06130 -11.50085 35019 ft 481 kts 32°
2026-05-06 16:33 33.11603 -11.45490 35016 ft 481 kts 32°
2026-05-06 16:34 33.19801 -11.38601 35021 ft 480 kts 32°
2026-05-06 16:34 33.25253 -11.33984 35016 ft 480 kts 32°
2026-05-06 16:35 33.30698 -11.29352 35041 ft 481 kts 32°
2026-05-06 16:35 33.36144 -11.24714 35031 ft 481 kts 32°
2026-05-06 16:36 33.41595 -11.20081 35010 ft 481 kts 32°
2026-05-06 16:36 33.47044 -11.15441 35034 ft 480 kts 32°
2026-05-06 16:37 33.52482 -11.10796 35029 ft 480 kts 32°
2026-05-06 16:37 33.57913 -11.06150 35027 ft 479 kts 32°
2026-05-06 16:38 33.63333 -11.01501 35019 ft 479 kts 32°
2026-05-06 16:38 33.68758 -10.96846 35021 ft 479 kts 32°